Regional Weather Roundup
Issued by NWS Burlington, VT

Current Version | Previous Version | Text Only | Print | Product List | Glossary Off
Versions: 1 2 3 4 5 6 7 8 9 10 11 12 13 14 15 16 17 18 19 20 21 22 23 24 25 26 27 28 29 30 31 32 33 34 35 36 37 38 39 40 41 42 43 44 45 46 47 48 49 50

000
ASUS41 KBTV 300110
RWRBTV
VERMONT REGIONAL WEATHER ROUNDUP
NATIONAL WEATHER SERVICE BURLINGTON VT
900 PM EDT THU SEP 29 2016

NOTE: "FAIR" INDICATES FEW OR NO CLOUDS BELOW 12,000 FEET WITH NO
SIGNIFICANT WEATHER AND/OR OBSTRUCTIONS TO VISIBILITY.

* THESE REPORTS ARE NOT UNDER NWS QUALITY CONTROL AND/OR DO NOT
  REPORT WEATHER SUCH AS PRECIPITATION AND FOG.

VTZ001>019-300200-
_____VERMONT_____


CITY           SKY/WX    TMP DP  RH WIND       PRES   REMARKS
BURLINGTON     CLOUDY    62  51  67 E5        30.48R
MONTPELIER     PTCLDY    54  44  69 CALM      30.54R
MORRISVILLE    PTCLDY    55  49  80 N7        30.51R
ST. JOHNSBURY*   N/A     53  49  86 MISG      30.50R
LYNDONVILLE*   FAIR      53  45  72 CALM      30.52R
MIDDLEBURY*    FAIR      59  44  57 SE5       30.48S
RUTLAND*       MOCLDY    56  44  64 CALM      30.49
SPRINGFIELD    PTCLDY    50  45  83 CALM      30.51R
HIGHGATE*      FAIR      55  48  75 E5        30.49S
NEWPORT*       FAIR      50  44  79 N5        30.51S
BENNINGTON     MOCLDY    58  42  55 E6        30.45R
SUTTON*          N/A     48 N/A N/A MISG        N/A

_____LAKE CHAMPLAIN_____


CITY           SKY/WX    TMP DP  RH WIND       PRES   REMARKS
BURTON ISLAND*   N/A     61  52  72 N1          N/A
COLCHESTER RF*   N/A     64  55  72 N8          N/A
DIAMOND ISL*     N/A     64  52  63 NW12        N/A

$$

NYZ007-026>031-035-052-083-087-300200-
_____NORTHERN NEW YORK_____


CITY           SKY/WX    TMP DP  RH WIND       PRES   REMARKS
PLATTSBURGH    CLOUDY    60  47  61 N12       30.48R
SARANAC LAKE   CLOUDY    55  45  68 NE9       30.46S
MASSENA        CLOUDY    59  47  64 NE10      30.49S
OGDENSBURG*    CLEAR     59  46  63 E10G17    30.45S
POTSDAM*       MOCLDY    59  48  67 E8        30.46S
WATERTOWN      CLOUDY    58  50  75 NE6       30.41R
FT DRUM        CLOUDY    58  51  76 E7        30.40S
ALBANY         MOCLDY    58  46  64 CALM      30.44R
GLENS FALLS    PTCLDY    59  44  57 NE5       30.45R

$$
NHZ002-005-011-300200-
_____NEW HAMPSHIRE_____


CITY           SKY/WX    TMP DP  RH WIND       PRES   REMARKS
LEBANON        CLOUDY    50  46  86 NE5       30.50R
KEENE          MOCLDY    49  46  90 CALM      30.50R
MT WASHINGTON  MOCLDY    45  -4  13 SE12        N/A
PLYMOUTH       FAIR      46  44  93 CALM      30.52R
WHITEFIELD     PTCLDY    55  39  54 E5        30.51R

$$

_____REGIONAL QUEBEC LOCATIONS_____


CITY           SKY/WX    TMP DP  RH WIND       PRES   REMARKS
MONTREAL       MOCLDY    57  43  58 NE13      30.52R
QUEBEC CITY    PTCLDY    46  41  81 NE7       30.58S
SHERBROOKE     CLEAR     50  41  71 NE8       30.53R

_____REGIONAL ONTARIO LOCATIONS_____


CITY           SKY/WX    TMP DP  RH WIND       PRES   REMARKS
OTTAWA         MOCLDY    57  43  58 NE15      30.49S

______KEY______
VSB  - VISIBILITY IN MILES
WCI  - WIND CHILL INDEX
HX   - HEAT INDEX
$$
NNNN




USA.gov is the U.S. government's official web portal to all federal, state and local government web resources and services.